Location: De Greiden
(52.9496°N, 5.9137°E)
Time: 22:49:41
(UTC+00:00)

Cosmos 2082 Rocket - Pass Details

Date: 24 January 2021
Orbit: 832 x 855 km, 71.0° (Epoch: 01 March)

Event Time Altitude Azimuth Distance (km) Brightness Sun altitude
Rises 16:48:45 0° 325° (NW) 3,438 5.5 -6.5°
Reaches altitude 10° 16:51:50 10° 341° (NNW) 2,499 4.6 -6.9°
Maximum altitude 16:56:10 22° 31° (NNE) 1,815 3.5 -7.5°
Drops below altitude 10° 17:00:29 10° 80° (E) 2,489 4.0 -8.1°
Enters shadow 17:00:45 - 82° (E) 2,558 4.1 -8.2°
